Regional Weather Roundup
Issued by NWS Jackson, KY

Home | Current Version | Previous Version | Graphics & Text | Print | Product List | Glossary On
Versions: 1 2 3 4 5 6 7 8 9 10 11 12 13 14 15 16 17 18 19 20 21 22 23 24 25 26 27 28 29 30 31 32 33 34 35 36 37 38 39 40 41 42 43 44 45 46 47 48 49 50
000
ASUS43 KJKL 252219
RWRJKL

EAST KENTUCKY HOURLY WEATHER ROUNDUP
NATIONAL WEATHER SERVICE JACKSON KY
600 PM EDT SAT OCT 25 2014

NOTE: "FAIR" INDICATES FEW OR NO CLOUDS BELOW 12,000 FEET WITH
NO SIGNIFICANT WEATHER AND/OR OBSTRUCTIONS TO VISIBILITY.

* THESE REPORTS ARE NOT UNDER NWS QUALITY CONTROL AND MAY NOT
  REPORT WEATHER SUCH AS PRECIPITATION AND FOG.

KYZ079-080-083-085-087-088-110-112-115-119-120-252300
...EASTERN KENTUCKY...

CITY           SKY/WX    TMP DP  RH WIND       PRES   REMARKS
JACKSON        CLEAR     66  53  63 VRB3      29.98S
LONDON         CLEAR     69  53  56 SW6       29.99F
SOMERSET*      CLEAR     68  54  60 W7        30.01S
MONTICELLO*    CLEAR     71  57  61 SW7       30.02S
MIDDLESBORO*   PTCLDY    67  52  57 W5        30.01S
HARLAN APT*    PTCLDY    66  48  52 SW5       30.01S
BLACK MTN*       N/A     55  50  82 S2          N/A
PIKEVILLE APT* MOCLDY    63  50  63 CALM      29.96F
BIG SANDY*     PTCLDY    66  52  60 SW5       29.96F
MOREHEAD APT*  CLEAR     68  57  68 SW9       29.97F
$$

KYZ035-036-041-042-044-050-067-078-099-252300
...CENTRAL KENTUCKY...

CITY           SKY/WX    TMP DP  RH WIND       PRES   REMARKS
MT STERLING*   PTCLDY    68  59  73 W8        29.98S
FLEMING/MASON* CLEAR     68  57  68 SW8       29.95S
DANVILLE*      CLEAR     68  55  64 W7        30.00S
RICHMOND*      CLEAR     70  57  64 W10       29.98R
LEXINGTON      CLEAR     72  58  61 SW7       29.97R
FRANKFORT      CLEAR     72  57  59 W6        29.96S
$$

KYZ091>093-OHZ055-061-077-WVZ005-015-034-035-042-252300
...SOUTHERN OHIO/WEST VIRGINIA...

CITY           SKY/WX    TMP DP  RH WIND       PRES   REMARKS
COVINGTON      PTCLDY    72  51  47 W10       29.93R
COLUMBUS       CLEAR     71  53  52 W9        29.83F
DAYTON         PTCLDY    74  47  38 W17G24    29.89S
WILMINGTON     CLEAR     69  53  56 W14       29.89F
HUNTINGTON     CLEAR     66  54  65 SW9G18    29.92R
CHARLESTON     PTCLDY    65  49  56 SW13      29.90F
PINEVILLE*     CLOUDY    63  54  74 MISG      30.01S
BECKLEY        CLOUDY    59  43  55 SW6       29.96F
BLUEFIELD      MOCLDY    61  41  47 W12       29.98F
$$

VAZ002-007-008-TNZ017-027-036-066-071-252300
...SOUTHWEST VIRGINIA/EAST TENNESSEE...

CITY           SKY/WX    TMP DP  RH WIND       PRES   REMARKS
WISE*          CLOUDY    61  45  55 SW8       30.02F
JONESVILLE*    CLEAR     66  48  52 CALM      30.03R
ABINGDON*      MOCLDY    65  47  52 W7        30.01S
BRISTOL        MOCLDY    66  49  54 SW9       30.01F
KNOXVILLE      PTCLDY    68  49  50 SW6       30.00F
OAK RIDGE      PTCLDY    71  50  47 SW5       30.02S
CROSSVILLE     MOCLDY    68  55  63 W8        30.06R
NASHVILLE      MOSUNNY   78  62  57 W7        30.00R
$$

...KEY TO REMARKS...
VSB - VISIBILITY IN MILES
WCI - WIND CHILL INDEX
HX  - HEAT INDEX

$$



USA.gov is the U.S. government's official web portal to all federal, state and local government web resources and services.